ftp/pub/mcmurdo/arrivalheights/2008/March/080313.txt
3/13/08
Time Wind Dir Wind Spd Wind Gust Hum In Humidity Temp In Temp Raw Barom Tot Rain
° kts kts % % °C °C mb mm
0:00 2 8 8 24 100 19.8 -15.3 963.77 0.00
0:20 0 4 6 30 100 19.7 -14.7 963.71 0.00
0:40 336 5 6 32 100 19.9 -14.7 963.54 0.00
1:00 9 5 7 27 100 20.3 -14.9 963.37 0.00
1:20 0 5 5 24 100 20.7 -15.0 963.20 0.00
1:40 339 5 6 25 100 19.8 -14.1 963.23 0.00
2:00 358 4 5 30 100 19.8 -15.2 963.20 0.00
2:20 0 0 1 32 100 20.1 -14.5 963.10 0.00
2:40 0 1 1 26 100 20.5 -14.9 962.86 0.00
3:00 22 2 3 22 100 20.4 -15.1 962.69 0.00
3:20 13 4 5 28 100 19.8 -15.6 962.76 0.00
3:40 34 6 8 31 100 19.9 -14.8 962.62 0.00
4:00 36 7 7 30 100 20.2 -14.7 962.62 0.00
4:20 29 8 10 26 100 20.6 -16.2 962.55 0.00
4:40 20 10 12 22 100 20.2 -16.4 962.66 0.00
5:00 34 11 13 28 100 19.7 -15.8 962.72 0.00
5:20 33 10 12 31 100 19.8 -15.1 962.89 0.00
5:40 38 12 13 29 100 20.1 -14.4 962.82 0.00
6:00 38 12 12 25 100 20.5 -13.9 962.86 0.00
6:20 35 12 14 24 100 20.8 -14.6 962.79 0.00
6:40 36 15 15 29 100 20.8 -14.7 962.89 0.00
7:00 49 11 12 31 100 20.9 -14.2 962.99 0.00
7:20 44 10 13 32 100 20.9 -14.3 962.99 0.00
7:40 36 15 15 27 100 20.9 -14.1 962.86 0.00
8:00 31 12 13 25 100 19.9 -13.2 963.20 0.00
8:20 50 10 12 31 100 19.9 -13.7 963.26 0.00
8:40 28 10 11 31 100 20.1 -14.2 963.33 0.00
9:00 41 12 13 25 100 20.6 -14.3 963.50 0.00
9:20 45 12 13 22 100 20.4 -13.6 963.60 0.00
9:40 55 4 11 27 100 19.7 -15.6 963.77 0.00
10:00 48 17 17 30 100 19.7 -17.8 963.91 0.00
10:20 51 12 15 31 100 19.8 -17.8 964.18 0.00
10:40 40 17 18 32 100 19.7 -18.3 964.35 0.00
11:00 52 10 17 27 100 19.9 -17.7 964.52 0.00
11:20 49 17 17 23 100 20.2 -17.3 964.72 0.00
11:40 47 17 20 27 100 20.2 -16.9 964.79 0.00
12:00 47 20 23 29 100 20.2 -18.2 964.96 0.00
12:20 51 17 23 30 100 20.1 -18.4 964.89 0.00
12:40 49 23 23 30 100 20.1 -18.3 965.26 0.00
13:00 45 24 25 30 100 19.9 -19.6 965.43 0.00
13:20 45 26 27 30 100 19.8 -19.9 965.74 0.00
13:40 45 30 30 30 100 19.9 -19.9 966.04 0.00
14:00 43 28 30 30 100 20.0 -20.1 966.14 0.00
14:20 46 29 32 29 100 19.9 -20.1 966.24 0.00
14:40 45 30 32 29 100 19.7 -19.9 966.35 0.00
15:00 47 28 34 29 100 19.4 -20.1 966.35 0.00
15:20 45 31 35 28 100 19.2 -20.0 966.55 0.00
15:40 47 25 35 28 100 18.9 -19.9 966.79 0.00
16:00 44 29 36 28 100 18.7 -20.3 967.06 0.00
16:20 45 30 33 28 100 18.6 -20.1 967.19 0.00
16:40 44 32 35 28 100 18.3 -20.1 967.50 0.00
17:00 50 30 32 28 100 18.2 -19.8 967.80 0.00
17:20 50 32 34 29 100 18.0 -19.6 967.94 0.00
17:40 49 31 33 28 100 17.8 -19.8 968.18 0.00
18:00 50 32 35 28 100 17.7 -20.2 968.38 0.00
18:20 53 19 23 29 100 17.6 -20.4 968.65 0.00
18:40 50 30 31 29 100 17.9 -20.5 969.02 0.00
19:00 53 18 23 28 100 18.3 -20.5 969.33 0.00
19:20 54 19 22 28 100 18.3 -20.4 969.80 0.00
19:40 54 20 25 28 100 18.2 -20.6 970.00 0.00
20:00 51 24 24 29 100 18.1 -20.5 970.41 0.00
20:20 53 16 20 28 100 18.0 -20.6 970.82 0.00
20:40 53 18 18 29 100 17.9 -21.0 971.26 0.00
21:00 54 17 23 21 100 18.2 -21.0 971.46 0.00
21:20 51 16 17 22 100 18.1 -21.2 971.90 0.00
21:40 51 18 19 26 100 18.1 -21.1 972.21 0.00
22:00 54 12 15 28 100 18.1 -21.0 972.37 0.00
22:20 50 17 17 29 100 18.0 -21.1 972.78 0.00
22:40 53 11 17 27 100 18.1 -21.2 972.71 0.00
23:00 66 12 16 21 100 18.4 -20.7 973.05 0.00
23:20 65 11 15 23 100 18.4 -20.8 973.32 0.00
23:40 80 8 18 27 100 18.4 -19.5 973.49 0.00


